Погода Тарту

Погода Тарту : погода сейчас, прогноз погоды и архив. Всё, что Вы хотите узнать о погоде Тарту!

Поиск расширенной информации на нашем сайте:

Полезная информация:

Другие новости

Новости СМИ2

Главная страница сайта

Новости сайта

03.07.2017

Напоминаем, что на нашем специализированном сайте Метеоцентр.Азия вы можете получить высокодетализированные автоматические прогнозы погоды по пунктам России, СНГ и мира в авиационном формате (включающие направление и скорость ветра, видимость, явления погоды, количество и форму облачности, нижнюю и верхнюю границу облачности).

Рекомендуем:

Погода Тарту - сегодня

Время (UTC), дата Ветер
(°,м/с) 
Видим.   Явления Облачность Т
(°С)
Тd
(°С)
f(%) Тe
(°С)
Pmin
(гПа)
dP
(гПа)
Po
(мм)
O2
(г/м3)
Тmin Tmax R s Состояние
почвы
03 19.03.19 180 (Ю) 35000 м    10/5 840 м средняя 
[Sc|Ac trans]
+2.2 -0.5 82 1006.4  0.4  748  299  +1.7  +3.9       
06 19.03.19 190 (Ю) 23000 м  слаб. ливневой дождь  9/6 360 м кучево-дожд., средняя 
[Cb cap|Ac trans]
+2 +1 93 +1  1007.6  1.2  749  299  +1.7  +2.9  0.3     
09 19.03.19 230 (ЮЗ) 4-9{09}  35000 м  {ливн. осадки}  9/8 540 м кучево-дожд., средняя 
[Cb calv|Ac cuf]
+3.9 +0.3 77 +2  1009.3  1.7  750  298  +1.7  +4.3       
12 19.03.19 230 (ЮЗ) 3{09}  35000 м  {ливн. осадки}  9/9 600 м кучево-дожд. 
[Cb calv]
+4.1 -0.8 70 +3  1011.1  1.8  752  299  +1.7  +5.4       
15 19.03.19 230 (ЮЗ) 3{09}  35000 м    9/8 600 м кучево-дожд., средняя 
[Cb calv|Ac As]
+3.3 -0.6 76 +2  1012.6  1.5  753  300  +1.7  +5.4       
18 19.03.19 260 (З) 26000 м  слаб. ливневой дождь со снегом  10/10 180 м кучево-дожд. 
[Cb cap]
+1.2 +0.7 96 1014.9  2.3  755  303  +1.2  +5.4     
21 19.03.19 270 (З) 4-8{08}  26000 м  слаб. снег{ливн. осадки}  10/10 120 м 
[St]
+0.6 +0 96 -2  1017.5  2.6  756  304  +0.6  +5.4  0.1     
00 20.03.19 260 (З) 10 км  {ливн. осадки, снег}  10/10 100 м 
[St]
+0.2 -0.2 97 -2  1019.6  2.1  758  305  +0.2  +4.6       
03 20.03.19 270 (З) 35000 м  в посл. час снег  10/10 270 м 
[St]
+0 -1.3 91 -2  1021.1  1.5  759  306  -0.1  +3.3       
06 20.03.19 250 (З) 3{09}  10 км  слаб. снег  10/9 450 м 
[Sc]
-0.7 -2.9 85 -3  1022.4  1.3  760  307  -0.8  +1.7    <0.5  равномерный
сухой снег
100% 
09 20.03.19 260 (З) 3{10}  35000 м  {снег}  8/8 540 м 
[Sc]
+2.2 -2.1 73 +1  1022.5  0.1  760  304  -0.8  +2.3       
12 20.03.19 250 (З) 4-9{10}  35000 м  {снег}  9/8 960 м средняя, верхняя 
[Sc|Ac trans|Ci]
+4.9 -2.5 59 +3  1021  -1.5  759  301  -0.8  +5.5       
15 20.03.19 210 (ЮЗ) 4{09}  35000 м    10/0 средняя 
[Ac As]
+4.4 -3.7 56 +3  1018.8  -2.2  758  301  -0.8  +6       
18 20.03.19 230 (ЮЗ) 2{11}  27000 м  слаб. дождь  10/10 400 м 
[Frnb|Ns]
+2.1 +0.8 91 +1  1017.2  -1.6  756  302  -0.7  +6       
21 20.03.19 250 (З) 3{09}  35000 м  в посл. час дождь{морось}  10/10 150 м 
[St]
+1.8 +1.3 96 1017.3  -0.1  756  303  +1.7  +6  0.5     
00 21.03.19 270 (З) 35000 м  {дождь, морось}  9/9 270 м 
[Sc]
+2 +0.7 91 +1  1018.7  1.4  757  303  +1.7  +6       
03 21.03.19 260 (З) 35000 м    10/10 150 м 
[St]
+1.5 +0.8 95 +1  1019.3  0.6  758  304  +1.5  +4.6       
06 21.03.19 260 (З) 35000 м    10/10 150 м 
[St]
+2.2 +1.2 93 +2  1020.5  1.2  759  303  +1.5  +2.4       
09 21.03.19 250 (З) 35000 м    9/0 средняя 
[Ac As]
+6.2 +1.9 74 +5  1020  -0.5  758  299  +1.5  +6.3       
12 21.03.19 240 (ЮЗ) 4{09}  35000 м    9/0 средняя, верхняя 
[Ac As|Ci fib]
+7.6 +2.5 70 +6  1018.6  -1.4  757  297  +1.5  +7.7       
15 21.03.19 220 (ЮЗ) 2{09}  19000 м  дождь  10/10 400 м 
[Frnb|Ns]
+6.5 +3.6 82 +6  1016.4  -2.2  756  297  +1.5  +8.1       
18 21.03.19 220 (ЮЗ) 4100 м  дождь  10/10 120 м 
[Frnb|Ns]
+5.2 +4.9 98 +5  1013.7  -2.7  754  297  +2.2  +8.1     
21 21.03.19 270 (З) 4-8{08}  8000 м  слаб. дождь  10/10 100 м 
[Frnb|Ns]
+4.8 +4.5 98 +3  1013  -0.7  753  298  +4.8  +8.1     
00 22.03.19 290 (З) 35000 м  в посл. час дождь  9/9 180 м средняя 
[Sc|Ac As]
+4.3 +3.6 95 +3  1014.7  1.7  755  299  +4.3  +8.1  0.2     
03 22.03.19 300 (СЗ) 4{09}  35000 м    1/0 средняя 
[Ac As]
+1.9 -2 75 1017.9  3.2  757  303  +1.9  +6.5       
Время (UTC), дата Ветер
(°,м/с) 
Видим.   Явления Облачность Т
(°С)
Тd
(°С)
f(%) Тe
(°С)
Pmin
(гПа)
dP
(гПа)
Po
(мм)
O2
(г/м3)
Тmin Tmax R s Состояние
почвы

Для получения пояснительной информации подведите курсор к названию столбца.

ПОГОДА Тарту - архив

Всё, что Вы хотите узнать о погоде Тарту - удобно и подробно!

Выберите нужную дату (начиная с 1 января 2018* года) и нажмите кнопку "Найти".
Будут отображены архивные сводки погоды по пункту Тарту, начиная с указанной даты.


Отображать данные в формате CSV (для использования в таблицах Excel)


Внимание! Наш архив погоды предназначен исключительно для личного некоммерческого использования в познавательных целях. Если Вам необходимы официальные справки о состоянии погоды (для производственных, юридических, коммерческих и т.п. целей), обращайтесь в органы Росгидромета.

*Примечание: данная дата относится к архиву по метеостанциям СССР (Россия, СНГ, Балтия).
Архив по метеостанциям Зарубежной Европы и Азии (кроме Китая) хранится 10 дней, по другим регионам земного шара (Китай, Африка, Америка, Австралия, Океания) - 1 день.

Тарту - район местоположения метеостанции


Название, широта, долгота, высота метеостанции:
Тарту 58.3°ш. 26.7°д. 68 м над ур. моря [Эстония]

Дополнительная информация

В oтличие oт бoльшинства пoгoдных сайтoв мы публикуем пoдрoбную метеoинфoрмацию в детальнoм прoфессиoнальнoм фoрмате.

Характеристики температуры и влажнoсти вoздуха измеряются на высoте 2 м в тени вдали oт зданий и деревьев.
Скoрoсть ветра измеряется на высoте 10 м (на урoвне рoста челoвека скoрoсть ветра ниже в 1.5-2 раза). Если метеoстанция нахoдится в гoрoде или в лесу, тo скoрoсть ветра занижена на 2-4 м/с пo сравнению с oткрытым местoм. Скoрoсть ветра над акватoриями крупных рек и oзёр, а также на вершинах хoлмoв на 2-5 м/с выше, чем в oбычных услoвиях.
Атмoсфернoе давление в разных тoчках местнoсти мoжет значительнo oтличаться oт давления на метеoстанции, в зависимoсти oт услoвий рельефа (при пoдъёме на 10 м давление пoнижается примернo на 1 мм рт.ст.).